Tracking 19831 objects as of 23-Aug-2019
HD Live streaming from Space Station
objects crossing your sky now

CZ-2D DEB

Track CZ-2D DEB now!
10-day predictions


NORAD ID: 43505
Int'l Code: 2018-025C
Perigee: 500.1 km
Apogee: 528.5 km
Inclination: 97.5 °
Period: 94.8 minutes
Semi major axis: 6885 km
RCS: Unknown
Launch date: March 17, 2018
Source: People's Republic of China (PRC)
Launch site: Jiuquan Satellite Launch Center, China (JSC)

Note: This is SATELLITE DEBRIS
aabbcc
Your satellite tracking list
Your tracking list is empty




NASA's NSSDC Master Catalog

Two Line Element Set (TLE):
1 43505U 18025C   19234.29088974 +.00000872 +00000-0 +44103-4 0  9992
2 43505 097.5185 355.5389 0020607 107.3350 253.0141 15.19550422076885
Source of the keplerian elements: AFSPC